{"data":{"norad_id":57131,"epoch":"2026-05-25T04:08:18.085920Z","epoch_age_seconds":59884,"freshness":"FRESH","line1":"1 57131U 23090AG  26145.17243155  .00002491  00000+0  10000-3 0  9996","line2":"2 57131  43.0025 191.1364 0001555 329.0639  31.0121 15.27586845162059","mean_motion":15.27586845,"eccentricity":0.0001555,"inclination_deg":43.0025,"raan_deg":191.1364,"arg_perigee_deg":329.0639,"mean_anomaly_deg":31.0121,"bstar":0.0001,"rev_number":16205,"period_min":94.266326311549,"perigee_km":481.96168847296,"apogee_km":484.09551097447,"semimajor_km":6861.1655997237,"source":"CELESTRAK","updated_at":"2026-05-25T13:38:18.245676Z"}}